Location: Risskov
(56.1972°N, 10.2480°E)
Time: 12:58:35
(UTC+00:00)

NOSS 0 Rocket - Pass Details

Date: 05 July 2020
Orbit: 934 x 955 km, 70.0° (Epoch: 07 August)

Event Time Altitude Azimuth Distance (km) Brightness Sun altitude
Exits shadow 22:07:31 - 202° (SSW) 3,298 6.3 -9.5°
Reaches altitude 10° 22:09:17 10° 201° (SSW) 2,644 5.8 -9.6°
Maximum altitude 22:15:20 67° 120° (ESE) 1,019 4.0 -9.8°
Drops below altitude 10° 22:21:29 10° 40° (NE) 2,671 6.8 -10.0°
Sets 22:24:02 0° 38° (NE) 3,623 7.6 -10.1°
